| time (UTC) | temp C | wind direction | speed KPH | gust KPH | rain 1hr cm | rain 24hr cm | rain mn cm | humidity % | barometer mb |
| 20260504213024 | 15 | 223 | 9.7 | 17.7 | 0.00 | 0.00 | 0.00 | 63 | 1010.9 |
| 20260504212520 | 16 | 188 | 9.7 | 17.7 | 0.00 | 0.00 | 0.00 | 62 | 1010.7 |
| 20260504212017 | 16 | 198 | 14.5 | 19.3 | 0.00 | 0.00 | 0.00 | 61 | 1010.7 |
| 20260504211514 | 16 | 250 | 8.0 | 12.9 | 0.00 | 0.00 | 0.00 | 62 | 1010.7 |
| 20260504211011 | 16 | 194 | 8.0 | 17.7 | 0.00 | 0.00 | 0.00 | 62 | 1010.8 |
| 20260504210508 | 16 | 197 | 8.0 | 17.7 | 0.00 | 0.00 | 0.00 | 62 | 1010.9 |
| 20260504210005 | 16 | 200 | 11.3 | 11.3 | 0.00 | 0.00 | 0.00 | 61 | 1010.8 |
| 20260504205503 | 16 | 273 | 6.4 | 16.1 | 0.00 | 0.00 | 0.00 | 61 | 1010.9 |
| 20260504205000 | 16 | 209 | 6.4 | 14.5 | 0.00 | 0.00 | 0.00 | 60 | 1010.7 |
| 20260504204458 | 16 | 242 | 14.5 | 14.5 | 0.00 | 0.00 | 0.00 | 61 | 1010.7 |
| 20260504203957 | 16 | 209 | 4.8 | 20.9 | 0.00 | 0.00 | 0.00 | 59 | 1010.8 |
| 20260504203455 | 16 | 181 | 6.4 | 20.9 | 0.00 | 0.00 | 0.00 | 60 | 1010.8 |
| 20260504202950 | 16 | 175 | 11.3 | 22.5 | 0.00 | 0.00 | 0.00 | 59 | 1010.6 |
| 20260504202447 | 16 | 182 | 14.5 | 25.7 | 0.00 | 0.00 | 0.00 | 59 | 1010.7 |
| 20260504201944 | 17 | 177 | 9.7 | 14.5 | 0.00 | 0.00 | 0.00 | 58 | 1010.5 |
| 20260504201441 | 16 | 230 | 3.2 | 22.5 | 0.00 | 0.00 | 0.00 | 58 | 1010.7 |
| 20260504200939 | 17 | 194 | 6.4 | 20.9 | 0.00 | 0.00 | 0.00 | 57 | 1010.6 |
| 20260504200435 | 17 | 234 | 12.9 | 22.5 | 0.00 | 0.00 | 0.00 | 56 | 1010.8 |
| 20260504195932 | 17 | 175 | 3.2 | 19.3 | 0.00 | 0.00 | 0.00 | 55 | 1010.8 |
| 20260504195428 | 17 | 199 | 6.4 | 24.1 | 0.00 | 0.00 | 0.00 | 55 | 1010.9 |
| 20260504194924 | 17 | 177 | 12.9 | 27.4 | 0.00 | 0.00 | 0.00 | 54 | 1011.0 |
| 20260504194420 | 18 | 197 | 4.8 | 16.1 | 0.00 | 0.00 | 0.00 | 53 | 1011.1 |
| 20260504193917 | 17 | 198 | 6.4 | 12.9 | 0.00 | 0.00 | 0.00 | 53 | 1010.9 |
| 20260504193414 | 17 | 199 | 11.3 | 20.9 | 0.00 | 0.00 | 0.00 | 53 | 1010.9 |
| 20260504192913 | 17 | 205 | 6.4 | 19.3 | 0.00 | 0.00 | 0.00 | 53 | 1010.9 |
| 20260504192410 | 18 | 206 | 6.4 | 14.5 | 0.00 | 0.00 | 0.00 | 51 | 1010.9 |
| 20260504191909 | 18 | 199 | 6.4 | 14.5 | 0.00 | 0.00 | 0.00 | 52 | 1010.9 |
| 20260504191406 | 18 | 215 | 4.8 | 20.9 | 0.00 | 0.00 | 0.00 | 51 | 1011.1 |
| 20260504190901 | 18 | 255 | 6.4 | 14.5 | 0.00 | 0.00 | 0.00 | 51 | 1011.1 |
| 20260504190357 | 18 | 231 | 6.4 | 14.5 | 0.00 | 0.00 | 0.00 | 49 | 1011.1 |
| 20260504185854 | 18 | 192 | 6.4 | 11.3 | 0.00 | 0.00 | 0.00 | 52 | 1011.1 |
| 20260504185351 | 18 | 274 | 11.3 | 16.1 | 0.00 | 0.00 | 0.00 | 51 | 1011.3 |
| 20260504184847 | 18 | 202 | 3.2 | 16.1 | 0.00 | 0.00 | 0.00 | 52 | 1011.4 |
| 20260504184343 | 18 | 39 | 6.4 | 19.3 | 0.00 | 0.00 | 0.00 | 51 | 1011.5 |
| 20260504183839 | 18 | 239 | 9.7 | 17.7 | 0.00 | 0.00 | 0.00 | 50 | 1011.3 |
| 20260504183337 | 18 | 230 | 8.0 | 14.5 | 0.00 | 0.00 | 0.00 | 50 | 1011.6 |
| 20260504182834 | 18 | 273 | 1.6 | 20.9 | 0.00 | 0.00 | 0.00 | 50 | 1011.5 |
| 20260504182331 | 18 | 202 | 8.0 | 14.5 | 0.00 | 0.00 | 0.00 | 51 | 1011.3 |
| 20260504181828 | 18 | 257 | 6.4 | 22.5 | 0.00 | 0.00 | 0.00 | 52 | 1011.5 |
| 20260504181326 | 17 | 230 | 4.8 | 11.3 | 0.00 | 0.00 | 0.00 | 54 | 1011.6 |
| 20260504180824 | 18 | 179 | 11.3 | 14.5 | 0.00 | 0.00 | 0.00 | 52 | 1011.5 |
| 20260504180322 | 17 | 206 | 8.0 | 20.9 | 0.00 | 0.00 | 0.00 | 51 | 1011.7 |
| 20260504175820 | 18 | 212 | 8.0 | 16.1 | 0.00 | 0.00 | 0.00 | 54 | 1011.6 |
| 20260504175317 | 17 | 180 | 6.4 | 17.7 | 0.00 | 0.00 | 0.00 | 53 | 1011.8 |
| 20260504174815 | 17 | 205 | 8.0 | 19.3 | 0.00 | 0.00 | 0.00 | 54 | 1011.7 |
| 20260504174312 | 17 | 245 | 8.0 | 19.3 | 0.00 | 0.00 | 0.00 | 53 | 1011.8 |
| 20260504173809 | 17 | 261 | 4.8 | 17.7 | 0.00 | 0.00 | 0.00 | 52 | 1011.8 |
| 20260504173306 | 17 | 296 | 6.4 | 20.9 | 0.00 | 0.00 | 0.00 | 52 | 1011.9 |
| 20260504172803 | 17 | 224 | 4.8 | 17.7 | 0.00 | 0.00 | 0.00 | 52 | 1011.8 |
| 20260504172259 | 17 | 205 | 8.0 | 17.7 | 0.00 | 0.00 | 0.00 | 52 | 1011.9 |
| 20260504171755 | 17 | 201 | 6.4 | 16.1 | 0.00 | 0.00 | 0.00 | 53 | 1012.0 |
| 20260504171252 | 18 | 254 | 6.4 | 11.3 | 0.00 | 0.00 | 0.00 | 50 | 1012.1 |
| 20260504170749 | 17 | 193 | 8.0 | 17.7 | 0.00 | 0.00 | 0.00 | 51 | 1012.1 |
| 20260504170246 | 17 | 193 | 8.0 | 16.1 | 0.00 | 0.00 | 0.00 | 50 | 1012.1 |
| 20260504160205 | 18 | 247 | 17.7 | 17.7 | 0.00 | 0.00 | 0.00 | 40 | 1012.6 |
| 20260504151133 | 17 | 297 | 6.4 | 19.3 | 0.00 | 0.00 | 0.00 | 49 | 1013.1 |
| 20260504150630 | 17 | 280 | 8.0 | 17.7 | 0.00 | 0.00 | 0.00 | 46 | 1013.0 |
| 20260504150127 | 17 | 224 | 3.2 | 14.5 | 0.00 | 0.00 | 0.00 | 46 | 1013.0 |
| 20260504141055 | 16 | 280 | 3.2 | 12.9 | 0.00 | 0.00 | 0.00 | 49 | 1013.3 |
| 20260504140552 | 16 | 214 | 8.0 | 14.5 | 0.00 | 0.00 | 0.00 | 48 | 1013.2 |
| 20260504130516 | 15 | 255 | 9.7 | 11.3 | 0.00 | 0.00 | 0.00 | 52 | 1013.8 |
| 20260504110404 | 10 | 258 | 3.2 | 8.0 | 0.00 | 0.00 | 0.00 | 63 | 1014.1 |
| 20260504100321 | 8 | 275 | 4.8 | 8.0 | 0.00 | 0.00 | 0.00 | 64 | 1013.5 |
| 20260504081715 | 9 | 279 | 3.2 | 4.8 | 0.00 | 0.00 | 0.00 | 61 | 1013.1 |
| 20260504081211 | 9 | 298 | 1.6 | 8.0 | 0.00 | 0.00 | 0.00 | 61 | 1013.0 |
| 20260504080707 | 8 | 268 | 3.2 | 4.8 | 0.00 | 0.00 | 0.00 | 61 | 1012.8 |
| 20260504080204 | 9 | 268 | 3.2 | 4.8 | 0.00 | 0.00 | 0.00 | 61 | 1012.8 |
| 20260504070131 | 9 | 257 | 3.2 | 8.0 | 0.00 | 0.00 | 0.00 | 61 | 1012.5 |
| 20260504050520 | 8 | 287 | 1.6 | 4.8 | 0.00 | 0.00 | 0.00 | 66 | 1012.3 |
| 20260504050017 | 8 | 235 | 0.0 | 4.8 | 0.00 | 0.00 | 0.00 | 65 | 1012.3 |
| 20260504045514 | 8 | 195 | 0.0 | 4.8 | 0.00 | 0.00 | 0.00 | 64 | 1012.3 |
| 20260504045009 | 8 | 218 | 0.0 | 4.8 | 0.00 | 0.00 | 0.00 | 65 | 1012.3 |
| 20260504044507 | 8 | 215 | 1.6 | 4.8 | 0.00 | 0.00 | 0.00 | 65 | 1012.3 |
| 20260504044004 | 8 | 285 | 0.0 | 4.8 | 0.00 | 0.00 | 0.00 | 64 | 1012.5 |
| 20260504043500 | 8 | 296 | 0.0 | 3.2 | 0.00 | 0.00 | 0.00 | 63 | 1012.4 |
| 20260504042958 | 8 | 344 | 0.0 | 3.2 | 0.00 | 0.00 | 0.00 | 62 | 1012.3 |
| 20260504042454 | 8 | 290 | 0.0 | 4.8 | 0.00 | 0.00 | 0.00 | 60 | 1012.5 |
| 20260504041952 | 8 | 231 | 0.0 | 4.8 | 0.00 | 0.00 | 0.00 | 59 | 1012.3 |
| 20260504041448 | 8 | 301 | 0.0 | 4.8 | 0.00 | 0.00 | 0.00 | 59 | 1012.3 |
| 20260504040943 | 7 | 252 | 1.6 | 4.8 | 0.00 | 0.00 | 0.00 | 60 | 1012.3 |
| 20260504040441 | 7 | 220 | 0.0 | 4.8 | 0.00 | 0.00 | 0.00 | 63 | 1012.3 |
| 20260504035937 | 7 | 305 | 0.0 | 4.8 | 0.00 | 0.00 | 0.00 | 63 | 1012.2 |
| 20260504035435 | 7 | 301 | 0.0 | 4.8 | 0.00 | 0.00 | 0.00 | 64 | 1012.2 |
| 20260504034931 | 7 | 315 | 3.2 | 4.8 | 0.00 | 0.00 | 0.00 | 65 | 1012.4 |
| 20260504034429 | 7 | 314 | 3.2 | 3.2 | 0.00 | 0.00 | 0.00 | 64 | 1012.1 |
| 20260504033926 | 7 | 298 | 1.6 | 3.2 | 0.00 | 0.00 | 0.00 | 62 | 1012.2 |
| 20260504033424 | 7 | 278 | 0.0 | 4.8 | 0.00 | 0.00 | 0.00 | 64 | 1012.2 |
| 20260504032920 | 7 | 328 | 1.6 | 3.2 | 0.00 | 0.00 | 0.00 | 59 | 1012.0 |
| 20260504032417 | 7 | 297 | 3.2 | 4.8 | 0.00 | 0.00 | 0.00 | 56 | 1012.2 |
| 20260504031914 | 7 | 304 | 0.0 | 4.8 | 0.00 | 0.00 | 0.00 | 60 | 1012.2 |
| 20260504031411 | 7 | 325 | 3.2 | 4.8 | 0.00 | 0.00 | 0.00 | 65 | 1012.2 |
| 20260504030908 | 7 | 302 | 1.6 | 4.8 | 0.00 | 0.00 | 0.00 | 64 | 1012.2 |
| 20260504030405 | 7 | 305 | 1.6 | 4.8 | 0.00 | 0.00 | 0.00 | 63 | 1012.2 |
| 20260504025901 | 7 | 308 | 3.2 | 4.8 | 0.00 | 0.00 | 0.00 | 62 | 1012.0 |
| 20260504025358 | 7 | 293 | 3.2 | 4.8 | 0.00 | 0.00 | 0.00 | 61 | 1012.1 |
| 20260504024855 | 7 | 283 | 1.6 | 3.2 | 0.00 | 0.00 | 0.00 | 58 | 1012.1 |
| 20260504024351 | 7 | 288 | 3.2 | 3.2 | 0.00 | 0.00 | 0.00 | 56 | 1012.1 |
| 20260504023848 | 8 | 311 | 1.6 | 4.8 | 0.00 | 0.00 | 0.00 | 56 | 1012.1 |
| 20260504023345 | 8 | 258 | 0.0 | 3.2 | 0.00 | 0.00 | 0.00 | 56 | 1012.1 |
| 20260504022840 | 8 | 323 | 0.0 | 3.2 | 0.00 | 0.00 | 0.00 | 56 | 1011.9 |
| 20260504022337 | 8 | 340 | 1.6 | 4.8 | 0.00 | 0.00 | 0.00 | 56 | 1012.1 |
| 20260504021834 | 8 | 331 | 3.2 | 4.8 | 0.00 | 0.00 | 0.00 | 56 | 1012.2 |
| 20260504021331 | 8 | 326 | 3.2 | 4.8 | 0.00 | 0.00 | 0.00 | 55 | 1012.2 |
| 20260504020828 | 9 | 307 | 1.6 | 4.8 | 0.00 | 0.00 | 0.00 | 53 | 1012.1 |
| 20260504020325 | 9 | 316 | 1.6 | 3.2 | 0.00 | 0.00 | 0.00 | 51 | 1012.0 |
| 20260504015821 | 9 | 287 | 4.8 | 4.8 | 0.00 | 0.00 | 0.00 | 47 | 1012.0 |
| 20260504015317 | 10 | 279 | 3.2 | 4.8 | 0.00 | 0.00 | 0.00 | 48 | 1012.1 |
| 20260504014814 | 10 | 272 | 1.6 | 4.8 | 0.00 | 0.00 | 0.00 | 48 | 1012.0 |
| 20260504014309 | 10 | 317 | 3.2 | 4.8 | 0.00 | 0.00 | 0.00 | 46 | 1012.1 |
| 20260504013808 | 10 | 275 | 3.2 | 3.2 | 0.00 | 0.00 | 0.00 | 45 | 1011.8 |
| 20260504013305 | 10 | 301 | 3.2 | 4.8 | 0.00 | 0.00 | 0.00 | 45 | 1011.7 |
| 20260504012801 | 10 | 276 | 3.2 | 6.4 | 0.00 | 0.00 | 0.00 | 44 | 1011.8 |
| 20260504012300 | 10 | 274 | 3.2 | 4.8 | 0.00 | 0.00 | 0.00 | 44 | 1011.7 |
| 20260504011756 | 10 | 309 | 3.2 | 4.8 | 0.00 | 0.00 | 0.00 | 46 | 1011.5 |
| 20260504011253 | 10 | 271 | 3.2 | 6.4 | 0.00 | 0.00 | 0.00 | 44 | 1011.7 |
| 20260504010749 | 10 | 288 | 4.8 | 4.8 | 0.00 | 0.00 | 0.00 | 45 | 1011.6 |
| 20260504010244 | 10 | 297 | 3.2 | 4.8 | 0.00 | 0.00 | 0.00 | 46 | 1011.5 |
| 20260504005742 | 10 | 298 | 3.2 | 4.8 | 0.00 | 0.00 | 0.00 | 49 | 1011.4 |
| 20260504005238 | 10 | 315 | 1.6 | 3.2 | 0.00 | 0.00 | 0.00 | 53 | 1011.4 |
| 20260504004736 | 10 | 322 | 1.6 | 4.8 | 0.00 | 0.00 | 0.00 | 53 | 1011.5 |
| 20260504004233 | 10 | 285 | 3.2 | 3.2 | 0.00 | 0.00 | 0.00 | 51 | 1011.4 |
| 20260504003729 | 10 | 282 | 3.2 | 4.8 | 0.00 | 0.00 | 0.00 | 48 | 1011.0 |
| 20260504003227 | 10 | 325 | 3.2 | 4.8 | 0.00 | 0.00 | 0.00 | 48 | 1011.1 |
| 20260504002723 | 10 | 338 | 3.2 | 3.2 | 0.00 | 0.00 | 0.00 | 48 | 1010.9 |
| 20260504002220 | 11 | 327 | 1.6 | 3.2 | 0.00 | 0.00 | 0.00 | 47 | 1011.0 |
| 20260504001718 | 11 | 322 | 0.0 | 3.2 | 0.00 | 0.00 | 0.00 | 46 | 1011.0 |
| 20260504001215 | 11 | 318 | 3.2 | 6.4 | 0.00 | 0.00 | 0.00 | 40 | 1010.6 |
| 20260504000711 | 12 | 307 | 4.8 | 4.8 | 0.00 | 0.00 | 0.00 | 40 | 1010.6 |
| 20260504000208 | 12 | 303 | 6.4 | 6.4 | 0.00 | 0.00 | 0.00 | 40 | 1010.5 |
| 20260503235707 | 12 | 283 | 4.8 | 8.0 | 0.00 | 0.00 | 0.00 | 39 | 1010.5 |
| 20260503235203 | 12 | 268 | 8.0 | 9.7 | 0.00 | 0.00 | 0.00 | 39 | 1010.5 |
| 20260503234701 | 12 | 274 | 4.8 | 6.4 | 0.00 | 0.00 | 0.00 | 37 | 1010.4 |
| 20260503234159 | 12 | 308 | 4.8 | 6.4 | 0.00 | 0.00 | 0.00 | 37 | 1010.4 |
| 20260503233655 | 12 | 294 | 6.4 | 9.7 | 0.00 | 0.00 | 0.00 | 36 | 1010.4 |
| 20260503233151 | 13 | 294 | 6.4 | 8.0 | 0.00 | 0.00 | 0.00 | 35 | 1010.2 |
| 20260503232648 | 13 | 300 | 6.4 | 16.1 | 0.00 | 0.00 | 0.00 | 34 | 1010.2 |
| 20260503232146 | 13 | 289 | 4.8 | 9.7 | 0.00 | 0.00 | 0.00 | 34 | 1010.2 |
| 20260503231644 | 13 | 303 | 6.4 | 14.5 | 0.00 | 0.00 | 0.00 | 32 | 1010.2 |
| 20260503231140 | 13 | 303 | 9.7 | 16.1 | 0.00 | 0.00 | 0.00 | 33 | 1010.1 |
| 20260503230637 | 13 | 300 | 4.8 | 11.3 | 0.00 | 0.00 | 0.00 | 33 | 1010.2 |
| 20260503230134 | 13 | 294 | 9.7 | 9.7 | 0.00 | 0.00 | 0.00 | 33 | 1010.1 |
| 20260503225631 | 13 | 304 | 12.9 | 20.9 | 0.00 | 0.00 | 0.00 | 32 | 1010.2 |
| 20260503225131 | 13 | 295 | 11.3 | 19.3 | 0.00 | 0.00 | 0.00 | 32 | 1010.0 |
| 20260503224629 | 13 | 295 | 6.4 | 16.1 | 0.00 | 0.00 | 0.00 | 32 | 1010.0 |
| 20260503224126 | 13 | 275 | 11.3 | 25.7 | 0.00 | 0.00 | 0.00 | 32 | 1009.8 |
| 20260503223624 | 13 | 316 | 9.7 | 16.1 | 0.00 | 0.00 | 0.00 | 34 | 1010.0 |
| 20260503223120 | 13 | 282 | 8.0 | 14.5 | 0.00 | 0.00 | 0.00 | 34 | 1009.9 |
| 20260503222618 | 13 | 323 | 9.7 | 17.7 | 0.00 | 0.00 | 0.00 | 33 | 1009.8 |
| 20260503222115 | 13 | 308 | 11.3 | 22.5 | 0.00 | 0.00 | 0.00 | 33 | 1009.8 |
| 20260503221614 | 13 | 304 | 12.9 | 22.5 | 0.00 | 0.00 | 0.00 | 32 | 1009.8 |
| 20260503221111 | 14 | 310 | 9.7 | 19.3 | 0.00 | 0.00 | 0.00 | 33 | 1010.0 |
| 20260503220608 | 14 | 304 | 9.7 | 14.5 | 0.00 | 0.00 | 0.00 | 33 | 1009.9 |
| 20260503220104 | 13 | 306 | 4.8 | 19.3 | 0.00 | 0.00 | 0.00 | 33 | 1009.7 |
| 20260503215601 | 13 | 277 | 20.9 | 24.1 | 0.00 | 0.00 | 0.00 | 32 | 1009.8 |
| 20260503215058 | 14 | 286 | 9.7 | 20.9 | 0.00 | 0.00 | 0.00 | 33 | 1009.7 |
| 20260503214556 | 14 | 309 | 11.3 | 20.9 | 0.00 | 0.00 | 0.00 | 34 | 1009.8 |
| 20260503214052 | 13 | 327 | 11.3 | 25.7 | 0.00 | 0.00 | 0.00 | 35 | 1009.9 |
| 20260503213551 | 13 | 323 | 19.3 | 25.7 | 0.00 | 0.00 | 0.00 | 35 | 1009.7 |